Indianapolis, IN

10:02 AM EST on February 12, 2016 (GMT -0500)
Thompson Medows | | Change Station
CLOSE
Current Station
Personal Weather Station
Location: Indianapolis, IN
Elevation: 745 ft
Nearby Weather Stations

Elev 745 ft 39.69 °N, 86.26 °W | Updated 2 minutes ago

Overcast
Overcast
25.2 °F
Feels Like 19 °F
N
4.7
Wind Variable Wind from NNE

Today
High -- | Low -- °F
--% Chance of Precip.
Yesterday
High -- | Low -- °F
Precip. -- in
Pressure 30.19 in
Visibility 10.0 miles
Clouds Mostly Cloudy 3700 ft
Overcast 7500 ft
Windchill 19 °F
Dew Point 18 °F
Humidity 73%
Rainfall 0.00 in
Snow Depth Not available.
7:41 AM 6:17 PM
Waxing Crescent, 21% visible
METAR KIND 121454Z 26010KT 10SM BKN037 OVC075 M04/M12 A3016 RMK AO2 SLP224 T10441117 58000
Pressure 30.19 in
Visibility 10.0 miles
Clouds Mostly Cloudy 3700 ft
Overcast 7500 ft
Windchill 19 °F
Dew Point 18 °F
Humidity 73%
Rainfall 0.00 in
Snow Depth Not available.
7:41 AM 6:17 PM
Waxing Crescent, 21% visible
METAR KIND 121454Z 26010KT 10SM BKN037 OVC075 M04/M12 A3016 RMK AO2 SLP224 T10441117 58000

10-Day Weather Forecast

Almanac

Astronomy

Feb. 12, 2016 Rise Set
Actual Time
Civil Twilight
Nautical Twilight
Astronomical Twilight
Moon
Length of Visible Light
Length of Day
Tomorrow will be .
, % of the Moon is Illuminated

Today's Extremes

State Highs State Lows

Community

WunderPhotos

Upload Photos

1,892,323 photos uploaded!

WunderBlog® & News

Nearby

Air Quality

  Air Quality AQ Index Pollutant
Not available.

Snow Depth

Station Depth Elevation

Earthquake Activity

City Distance Mag. Time & Date
Minimum magnitude displayed is 2.5.

Coastal Water Temperatures

Place Temperature

Stations

Nearby Weather Stations

Station Location Temp. Windchill Dew Point Humidity Wind Precip. Elev Updated Type
                   

Watches & Warnings

There are currently no watches in effect.